Sexton Summit, OR

12:05 PM PDT on October 14, 2019 (GMT -0700)
Sexton Summit

Weather History for KSXT - August, 2019

Change the Weather History Date:

Friday, August 2, 2019

  Actual Average Record
Temperature  
Mean Temperature 67 °F -  
Max Temperature 80 °F 75 °F 96 °F (2017)
Min Temperature 55 °F 52 °F 45 °F (1996)
Cooling Degree Days 2    
Growing Degree Days 17 (Base 50)    
Moisture  
Dew Point 52 °F    
Average Humidity 65    
Maximum Humidity 90    
Minimum Humidity 34    
Precipitation  
Precipitation 0.00 in - - ()
Sea Level Pressure  
Sea Level Pressure 30.06 in    
Wind  
Wind Speed 4 mph (NNW)    
Max Wind Speed 9 mph    
Max Gust Speed -    
Visibility 9 miles    
Events      
Averages and records for this station are not official NWS values.
T = Trace of Precipitation, MM = Missing Value Source: NWS Daily Summary

Daily Weather History Graph

Daily Weather History Graph

Search for Another Location

Airport or City:

Astronomy

Aug. 02, 2019 Rise Set
Actual Time 6:06 AM PDT 8:32 PM PDT
Civil Twilight 5:34 AM PDT 9:04 PM PDT
Nautical Twilight 4:54 AM PDT 9:43 PM PDT
Astronomical Twilight 4:10 AM PDT 10:27 PM PDT
Moon 7:53 AM PDT (8/2) 10:02 PM PDT (8/2)
Length of Visible Light 15h 29m
Length of Day
14h 26m
Waxing Crescent, 4% of the Moon is Illuminated
Aug 2
Waxing Crescent
Aug 7
First Quarter
Aug 15
Full
Aug 23
Last Quarter
Aug 30
New

Hourly Weather History & Observations

Time (PDT) Temp. Dew Point Humidity Pressure Visibility Wind Dir Wind Speed Gust Speed Precip Events Conditions
12:56 AM 60.1 °F 48.9 °F 67% 30.02 in 10.0 mi Calm Calm - N/A   Clear
1:56 AM 59.0 °F 48.0 °F 67% 30.02 in 10.0 mi WNW 5.8 mph - N/A   Clear
2:56 AM 55.9 °F 51.1 °F 84% 30.00 in 10.0 mi NW 8.1 mph - N/A   Clear
3:56 AM 55.0 °F 52.0 °F 89% 30.02 in 10.0 mi NNW 6.9 mph - N/A   Clear
4:56 AM 55.0 °F 51.1 °F 86% 30.02 in 10.0 mi NNW 5.8 mph - N/A   Clear
5:56 AM 55.9 °F 53.1 °F 90% 30.04 in 10.0 mi NNW 4.6 mph - N/A   Clear
6:56 AM 57.0 °F 53.1 °F 87% 30.05 in 2.0 mi NNW 3.5 mph - N/A   Clear
7:11 AM 57.0 °F 53.1 °F 87% 30.19 in 1.2 mi NNW 3.5 mph - N/A   Clear
7:27 AM 57.0 °F 51.1 °F 81% 30.20 in 1.8 mi Calm Calm - N/A   Haze
7:56 AM 59.0 °F 48.9 °F 69% 30.07 in 7.0 mi Calm Calm - N/A   Clear
8:56 AM 63.0 °F 52.0 °F 67% 30.09 in 8.0 mi Calm Calm - N/A   Clear
9:56 AM 66.9 °F 52.0 °F 59% 30.09 in 10.0 mi SSE 4.6 mph - N/A   Clear
10:56 AM 69.1 °F 53.1 °F 57% 30.09 in 9.0 mi Calm Calm - N/A   Clear
11:56 AM 71.1 °F 48.0 °F 44% 30.09 in 10.0 mi Variable 3.5 mph - N/A   Clear
12:56 PM 73.0 °F 46.0 °F 38% 30.08 in 10.0 mi Variable 3.5 mph - N/A   Clear
1:56 PM 75.0 °F 45.0 °F 34% 30.08 in 10.0 mi Variable 4.6 mph - N/A   Clear
2:56 PM 79.0 °F 48.0 °F 34% 30.07 in 10.0 mi NNW 4.6 mph - N/A   Clear
3:56 PM 79.0 °F 51.1 °F 38% 30.05 in 10.0 mi Variable 3.5 mph - N/A   Clear
4:56 PM 79.0 °F 53.1 °F 40% 30.04 in 10.0 mi North 4.6 mph - N/A   Clear
5:56 PM 77.0 °F 54.0 °F 45% 30.04 in 10.0 mi Variable 4.6 mph - N/A   Clear
6:56 PM 73.9 °F 55.0 °F 52% 30.04 in 10.0 mi Variable 3.5 mph - N/A   Clear
7:56 PM 69.1 °F 55.9 °F 63% 30.05 in 10.0 mi Calm Calm - N/A   Clear
8:56 PM 64.9 °F 55.9 °F 73% 30.06 in 10.0 mi Variable 4.6 mph - N/A   Clear
9:56 PM 63.0 °F 55.9 °F 78% 30.07 in 10.0 mi NNW 8.1 mph - N/A   Clear
10:56 PM 62.1 °F 55.9 °F 80% 30.06 in 10.0 mi NNW 9.2 mph - N/A   Clear
11:56 PM 61.0 °F 55.9 °F 83% 30.06 in 10.0 mi NNW 9.2 mph - N/A   Clear